SBD1470 KSAT-KPHX

Flight info

Callsign SBD1470
Flight time N/A
Altitude 32000
Route ALISS6 ALISS FST ELP DRRVR PINNG1
Aircraft B738/M-SDE2E3FGHIRWXY/LB1

Departure

Time 2026-04-21 16:03
Airport San Antonio International Airport (KSAT)

Arrival

Time N/A
Airport Phoenix Sky Harbor International Airport (KPHX)
Time Latitude Longitude Altitude Speed Heading
2026-04-21 15:38 29.52826 -98.47189 790 ft 0 kts 329°
2026-04-21 15:55 29.52818 -98.47183 790 ft 2 kts 309°
2026-04-21 15:55 29.52809 -98.47170 790 ft 2 kts 316°
2026-04-21 15:55 29.52798 -98.47158 790 ft 2 kts 314°
2026-04-21 15:55 29.52788 -98.47146 790 ft 2 kts 314°
2026-04-21 15:56 29.52777 -98.47134 790 ft 2 kts 314°
2026-04-21 15:56 29.52767 -98.47121 789 ft 2 kts 314°
2026-04-21 15:56 29.52755 -98.47115 790 ft 1 kts 13°
2026-04-21 15:56 29.52747 -98.47121 790 ft 1 kts 54°
2026-04-21 15:57 29.52743 -98.47126 790 ft 0 kts 43°
2026-04-21 15:59 29.52765 -98.47115 789 ft 9 kts 10°
2026-04-21 15:59 29.52865 -98.47055 787 ft 19 kts
2026-04-21 15:59 29.52978 -98.47074 787 ft 16 kts 314°
2026-04-21 15:59 29.53053 -98.47171 789 ft 17 kts 312°
2026-04-21 16:00 29.53137 -98.47279 791 ft 18 kts 305°
2026-04-21 16:00 29.53225 -98.47392 792 ft 20 kts 311°
2026-04-21 16:00 29.53324 -98.47520 793 ft 22 kts 311°
2026-04-21 16:00 29.53433 -98.47662 796 ft 24 kts 311°
2026-04-21 16:01 29.53548 -98.47812 799 ft 25 kts 312°
2026-04-21 16:01 29.53674 -98.47970 801 ft 27 kts 312°
2026-04-21 16:01 29.53803 -98.48138 805 ft 28 kts 311°
2026-04-21 16:01 29.53938 -98.48311 806 ft 30 kts 311°
2026-04-21 16:02 29.54073 -98.48486 807 ft 28 kts 312°
2026-04-21 16:02 29.54164 -98.48596 809 ft 13 kts 331°
2026-04-21 16:02 29.54243 -98.48570 807 ft 13 kts 55°
2026-04-21 16:02 29.54212 -98.48474 804 ft 13 kts 131°
2026-04-21 16:03 29.54073 -98.48294 803 ft 63 kts 132°
2026-04-21 16:03 29.53608 -98.47697 795 ft 133 kts 131°
2026-04-21 16:03 29.52891 -98.46788 1131 ft 161 kts 133°
2026-04-21 16:03 29.52076 -98.45888 1879 ft 167 kts 132°
2026-04-21 16:04 29.51666 -98.44721 2735 ft 168 kts 92°
2026-04-21 16:04 29.52095 -98.43462 3381 ft 177 kts 61°
2026-04-21 16:04 29.52909 -98.42355 3904 ft 187 kts 50°
2026-04-21 16:04 29.53982 -98.41487 4407 ft 198 kts 28°
2026-04-21 16:05 29.55337 -98.41106 4927 ft 205 kts
2026-04-21 16:05 29.56720 -98.41412 5463 ft 205 kts 330°
2026-04-21 16:05 29.57823 -98.42387 6080 ft 198 kts 310°
2026-04-21 16:05 29.58784 -98.43487 6656 ft 198 kts 311°
2026-04-21 16:06 29.59790 -98.44582 7245 ft 198 kts 311°
2026-04-21 16:06 29.60774 -98.45670 7841 ft 196 kts 310°
2026-04-21 16:06 29.61725 -98.46745 8408 ft 195 kts 310°
2026-04-21 16:06 29.62679 -98.47827 8973 ft 193 kts 311°
2026-04-21 16:07 29.63640 -98.48915 9500 ft 194 kts 311°
2026-04-21 16:07 29.64584 -98.49977 10135 ft 189 kts 311°
2026-04-21 16:07 29.65535 -98.51052 10513 ft 198 kts 311°
2026-04-21 16:07 29.66549 -98.52205 10830 ft 211 kts 312°
2026-04-21 16:08 29.68788 -98.54741 11594 ft 243 kts 313°
2026-04-21 16:08 29.70020 -98.56136 11973 ft 257 kts 313°
2026-04-21 16:08 29.71313 -98.57594 12458 ft 266 kts 313°
2026-04-21 16:09 29.72650 -98.59101 12919 ft 276 kts 313°
2026-04-21 16:09 29.74026 -98.60652 13524 ft 280 kts 313°
2026-04-21 16:09 29.75426 -98.62233 14130 ft 283 kts 313°
2026-04-21 16:09 29.76830 -98.63820 14699 ft 287 kts 313°
2026-04-21 16:10 29.78259 -98.65448 15329 ft 289 kts 311°
2026-04-21 16:10 29.79592 -98.67170 15956 ft 290 kts 307°
2026-04-21 16:10 29.80880 -98.69020 16263 ft 303 kts 305°
2026-04-21 16:10 29.82212 -98.70976 16538 ft 317 kts 305°
2026-04-21 16:11 29.83610 -98.73007 16803 ft 331 kts 306°
2026-04-21 16:11 29.85091 -98.75127 17032 ft 346 kts 306°
2026-04-21 16:11 29.86626 -98.77302 17250 ft 360 kts 306°
2026-04-21 16:11 29.88249 -98.79594 17460 ft 374 kts 306°
2026-04-21 16:12 29.89908 -98.81937 17652 ft 388 kts 307°
2026-04-21 16:12 29.91666 -98.84415 17870 ft 400 kts 307°
2026-04-21 16:12 29.93409 -98.86867 18451 ft 402 kts 307°
2026-04-21 16:12 29.95197 -98.89384 19076 ft 402 kts 307°
2026-04-21 16:13 29.96953 -98.91857 19645 ft 404 kts 307°
2026-04-21 16:13 29.98726 -98.94358 20213 ft 405 kts 307°
2026-04-21 16:13 30.00514 -98.96883 20765 ft 406 kts 307°
2026-04-21 16:13 30.02308 -98.99420 21251 ft 409 kts 307°
2026-04-21 16:14 30.04098 -99.01955 21773 ft 411 kts 307°
2026-04-21 16:14 30.05895 -99.04499 22302 ft 412 kts 307°
2026-04-21 16:14 30.07725 -99.07096 22735 ft 415 kts 306°
2026-04-21 16:14 30.09421 -99.09740 23219 ft 415 kts 302°
2026-04-21 16:15 30.10892 -99.12631 23648 ft 416 kts 295°
2026-04-21 16:15 30.12037 -99.15717 24060 ft 418 kts 289°
2026-04-21 16:15 30.12927 -99.18865 24517 ft 419 kts 286°
2026-04-21 16:15 30.13722 -99.22131 24949 ft 421 kts 285°
2026-04-21 16:16 30.14466 -99.25350 25429 ft 421 kts 284°
2026-04-21 16:16 30.15210 -99.28619 25866 ft 422 kts 284°
2026-04-21 16:16 30.15960 -99.31923 26228 ft 425 kts 284°
2026-04-21 16:16 30.16715 -99.35236 26655 ft 426 kts 284°
2026-04-21 16:17 30.17465 -99.38514 27274 ft 422 kts 284°
2026-04-21 16:17 30.18210 -99.41755 27936 ft 417 kts 284°
2026-04-21 16:17 30.18950 -99.44970 28484 ft 414 kts 284°
2026-04-21 16:17 30.19688 -99.48169 28951 ft 413 kts 284°
2026-04-21 16:18 30.20423 -99.51359 29462 ft 410 kts 284°
2026-04-21 16:18 30.21151 -99.54517 29931 ft 409 kts 284°
2026-04-21 16:18 30.21878 -99.57674 30452 ft 406 kts 284°
2026-04-21 16:18 30.22596 -99.60792 30917 ft 404 kts 284°
2026-04-21 16:19 30.23313 -99.63909 31329 ft 403 kts 284°
2026-04-21 16:19 30.24035 -99.67050 31781 ft 401 kts 283°
2026-04-21 16:19 30.24746 -99.70152 32148 ft 401 kts 283°
2026-04-21 16:20 30.26178 -99.76401 32176 ft 400 kts 283°
2026-04-21 16:20 30.27582 -99.82548 32174 ft 398 kts 283°
2026-04-21 16:21 30.28993 -99.88735 32169 ft 399 kts 283°
2026-04-21 16:21 30.30408 -99.94957 32172 ft 399 kts 283°
2026-04-21 16:22 30.31816 -100.01163 32181 ft 400 kts 283°
2026-04-21 16:22 30.33220 -100.07362 32182 ft 400 kts 283°
2026-04-21 16:23 30.34624 -100.13576 32180 ft 400 kts 283°
2026-04-21 16:23 30.36032 -100.19826 32179 ft 400 kts 283°
2026-04-21 16:24 30.37424 -100.26019 32180 ft 398 kts 283°
2026-04-21 16:24 30.38818 -100.32234 32179 ft 400 kts 283°
2026-04-21 16:25 30.40209 -100.38455 32178 ft 399 kts 283°
2026-04-21 16:25 30.41595 -100.44664 32178 ft 401 kts 283°
2026-04-21 16:26 30.42983 -100.50891 32175 ft 401 kts 283°
2026-04-21 16:26 30.44375 -100.57158 32174 ft 401 kts 283°
2026-04-21 16:27 30.45752 -100.63376 32169 ft 402 kts 283°
2026-04-21 16:27 30.47139 -100.69654 32169 ft 401 kts 283°
2026-04-21 16:28 30.48514 -100.75890 32168 ft 401 kts 283°
2026-04-21 16:28 30.49892 -100.82153 32165 ft 401 kts 283°
2026-04-21 16:29 30.51264 -100.88406 32168 ft 402 kts 283°
2026-04-21 16:29 30.52636 -100.94679 32164 ft 402 kts 283°
2026-04-21 16:30 30.54001 -101.00929 32168 ft 402 kts 283°
2026-04-21 16:30 30.55366 -101.07198 32163 ft 403 kts 283°
2026-04-21 16:31 30.56738 -101.13509 32170 ft 403 kts 283°
2026-04-21 16:31 30.58100 -101.19793 32170 ft 403 kts 283°
2026-04-21 16:32 30.59460 -101.26084 32169 ft 403 kts 283°
2026-04-21 16:32 30.60820 -101.32391 32168 ft 404 kts 282°
2026-04-21 16:33 30.62172 -101.38680 32161 ft 404 kts 283°
2026-04-21 16:33 30.63526 -101.44989 32156 ft 404 kts 283°
2026-04-21 16:34 30.64881 -101.51318 32148 ft 404 kts 282°
2026-04-21 16:34 30.66230 -101.57637 32148 ft 405 kts 282°
2026-04-21 16:35 30.67581 -101.63980 32149 ft 405 kts 282°
2026-04-21 16:35 30.68924 -101.70306 32149 ft 405 kts 282°
2026-04-21 16:36 30.70272 -101.76671 32149 ft 406 kts 282°
2026-04-21 16:36 30.71611 -101.83011 32148 ft 405 kts 282°
2026-04-21 16:37 30.72948 -101.89363 32147 ft 406 kts 282°
2026-04-21 16:37 30.74281 -101.95698 32147 ft 406 kts 282°
2026-04-21 16:38 30.75619 -102.02072 32148 ft 407 kts 282°
2026-04-21 16:38 30.76957 -102.08469 32150 ft 408 kts 282°
2026-04-21 16:39 30.78295 -102.14894 32150 ft 409 kts 282°
2026-04-21 16:39 30.79621 -102.21267 32151 ft 408 kts 282°
2026-04-21 16:40 30.80954 -102.27698 32151 ft 408 kts 282°
2026-04-21 16:40 30.82281 -102.34104 32151 ft 409 kts 282°
2026-04-21 16:41 30.83602 -102.40507 32151 ft 410 kts 282°
2026-04-21 16:41 30.84924 -102.46928 32149 ft 409 kts 282°
2026-04-21 16:42 30.86248 -102.53378 32151 ft 410 kts 282°
2026-04-21 16:42 30.87569 -102.59828 32150 ft 411 kts 282°
2026-04-21 16:43 30.88886 -102.66282 32152 ft 410 kts 281°
2026-04-21 16:43 30.90195 -102.72708 32151 ft 410 kts 281°
2026-04-21 16:44 30.91508 -102.79172 32148 ft 411 kts 281°
2026-04-21 16:44 30.92816 -102.85629 32148 ft 412 kts 281°
2026-04-21 16:45 30.94130 -102.92137 32141 ft 412 kts 281°
2026-04-21 16:45 30.95445 -102.98601 32138 ft 413 kts 282°
2026-04-21 16:46 30.97088 -103.04977 32145 ft 414 kts 285°
2026-04-21 16:46 30.98925 -103.11372 32153 ft 415 kts 286°
2026-04-21 16:47 31.00732 -103.17718 32154 ft 416 kts 286°
2026-04-21 16:47 31.02516 -103.24105 32151 ft 416 kts 285°
2026-04-21 16:48 31.04290 -103.30543 32152 ft 416 kts 285°
2026-04-21 16:48 31.06041 -103.36936 32158 ft 417 kts 285°
2026-04-21 16:49 31.07799 -103.43386 32160 ft 418 kts 285°
2026-04-21 16:49 31.09557 -103.49850 32160 ft 419 kts 285°
2026-04-21 16:50 31.11318 -103.56337 32159 ft 419 kts 285°
2026-04-21 16:50 31.13059 -103.62768 32167 ft 420 kts 285°
2026-04-21 16:51 31.14818 -103.69281 32163 ft 421 kts 285°
2026-04-21 16:51 31.16574 -103.75794 32164 ft 420 kts 285°
2026-04-21 16:52 31.18322 -103.82290 32172 ft 421 kts 285°
2026-04-21 16:52 31.20067 -103.88794 32181 ft 422 kts 285°
2026-04-21 16:53 31.21819 -103.95337 32184 ft 423 kts 285°
2026-04-21 16:53 31.23574 -104.01904 32182 ft 425 kts 285°
2026-04-21 16:54 31.25324 -104.08470 32192 ft 424 kts 285°
2026-04-21 16:54 31.27073 -104.15041 32193 ft 425 kts 285°
2026-04-21 16:55 31.28827 -104.21651 32197 ft 425 kts 285°
2026-04-21 16:55 31.30564 -104.28213 32203 ft 425 kts 285°
2026-04-21 16:56 31.32308 -104.34817 32212 ft 426 kts 285°
2026-04-21 16:56 31.34056 -104.41449 32223 ft 426 kts 285°
2026-04-21 16:57 31.35795 -104.48064 32232 ft 427 kts 285°
2026-04-21 16:57 31.37530 -104.54676 32234 ft 427 kts 285°
2026-04-21 16:58 31.39275 -104.61346 32231 ft 427 kts 285°
2026-04-21 16:58 31.41006 -104.67981 32220 ft 429 kts 285°
2026-04-21 16:59 31.42748 -104.74666 32222 ft 429 kts 285°
2026-04-21 16:59 31.44485 -104.81350 32230 ft 430 kts 285°
2026-04-21 17:00 31.46216 -104.88026 32249 ft 430 kts 285°
2026-04-21 17:00 31.47675 -104.93668 32259 ft 432 kts 285°
2026-04-21 17:01 31.49706 -105.01539 32271 ft 433 kts 285°
2026-04-21 17:01 31.51432 -105.08246 32265 ft 432 kts 285°
2026-04-21 17:02 31.53167 -105.15001 32255 ft 433 kts 285°
2026-04-21 17:02 31.54893 -105.21740 32246 ft 434 kts 285°
2026-04-21 17:03 31.56621 -105.28505 32242 ft 434 kts 285°
2026-04-21 17:03 31.58349 -105.35280 32242 ft 435 kts 285°
2026-04-21 17:04 31.60067 -105.42036 32248 ft 434 kts 285°
2026-04-21 17:04 31.61781 -105.48796 32249 ft 435 kts 285°
2026-04-21 17:05 31.63499 -105.55584 32251 ft 436 kts 285°
2026-04-21 17:05 31.65221 -105.62408 32257 ft 436 kts 285°
2026-04-21 17:06 31.66933 -105.69205 32265 ft 436 kts 284°
2026-04-21 17:06 31.68643 -105.76015 32267 ft 437 kts 284°
2026-04-21 17:07 31.70349 -105.82822 32268 ft 437 kts 285°
2026-04-21 17:07 31.72056 -105.89653 32266 ft 437 kts 284°
2026-04-21 17:08 31.73770 -105.96525 32261 ft 438 kts 284°
2026-04-21 17:08 31.75465 -106.03342 32255 ft 437 kts 284°
2026-04-21 17:09 31.78027 -106.13674 32229 ft 439 kts 285°
2026-04-21 17:09 31.79716 -106.20512 32206 ft 440 kts 285°
2026-04-21 17:10 31.81414 -106.27425 32197 ft 440 kts 284°
2026-04-21 17:10 31.82625 -106.34420 32189 ft 438 kts 278°
2026-04-21 17:11 31.83498 -106.41493 32188 ft 439 kts 277°
2026-04-21 17:11 31.84346 -106.48613 32193 ft 439 kts 277°
2026-04-21 17:12 31.85219 -106.55680 32197 ft 440 kts 277°
2026-04-21 17:12 31.86119 -106.62790 32202 ft 439 kts 278°
2026-04-21 17:13 31.87020 -106.69852 32205 ft 439 kts 277°
2026-04-21 17:13 31.87926 -106.76943 32205 ft 439 kts 277°
2026-04-21 17:14 31.88831 -106.84052 32209 ft 440 kts 277°
2026-04-21 17:14 31.89735 -106.91180 32216 ft 440 kts 277°
2026-04-21 17:15 31.90633 -106.98289 32217 ft 441 kts 277°
2026-04-21 17:15 31.91530 -107.05421 32224 ft 441 kts 277°
2026-04-21 17:16 31.92419 -107.12533 32227 ft 441 kts 277°
2026-04-21 17:16 31.93306 -107.19651 32233 ft 441 kts 277°
2026-04-21 17:17 31.94193 -107.26802 32235 ft 440 kts 277°
2026-04-21 17:17 31.95066 -107.33883 32230 ft 441 kts 277°
2026-04-21 17:18 31.95940 -107.41005 32226 ft 441 kts 277°
2026-04-21 17:18 31.96816 -107.48178 32225 ft 442 kts 277°
2026-04-21 17:19 31.97686 -107.55327 32225 ft 442 kts 277°
2026-04-21 17:19 31.98551 -107.62476 32225 ft 441 kts 277°
2026-04-21 17:20 31.99410 -107.69609 32225 ft 442 kts 277°
2026-04-21 17:20 32.00265 -107.76743 32227 ft 442 kts 277°
2026-04-21 17:21 32.01123 -107.83929 32235 ft 442 kts 276°
2026-04-21 17:21 32.01974 -107.91095 32236 ft 441 kts 276°
2026-04-21 17:22 32.02818 -107.98240 32240 ft 442 kts 276°
2026-04-21 17:22 32.03666 -108.05460 32252 ft 443 kts 276°
2026-04-21 17:23 32.04507 -108.12653 32259 ft 443 kts 276°
2026-04-21 17:23 32.05343 -108.19840 32253 ft 443 kts 276°
2026-04-21 17:24 32.06179 -108.27061 32266 ft 444 kts 276°
2026-04-21 17:24 32.07008 -108.34261 32259 ft 444 kts 276°
2026-04-21 17:25 32.07831 -108.41442 32254 ft 443 kts 276°
2026-04-21 17:25 32.08657 -108.48683 32256 ft 444 kts 276°
2026-04-21 17:26 32.09470 -108.55852 32256 ft 444 kts 276°
2026-04-21 17:26 32.10283 -108.63048 32251 ft 443 kts 276°
2026-04-21 17:27 32.11095 -108.70290 32255 ft 444 kts 276°
2026-04-21 17:27 32.11900 -108.77510 32245 ft 445 kts 276°
2026-04-21 17:28 32.12700 -108.84721 32236 ft 444 kts 276°
2026-04-21 17:28 32.13503 -108.91978 32235 ft 445 kts 276°
2026-04-21 17:29 32.14301 -108.99242 32234 ft 444 kts 276°
2026-04-21 17:29 32.15092 -109.06461 32236 ft 445 kts 276°
2026-04-21 17:30 32.15875 -109.13654 32234 ft 444 kts 276°
2026-04-21 17:30 32.16663 -109.20940 32226 ft 444 kts 276°
2026-04-21 17:31 32.17417 -109.27840 32227 ft 444 kts 277°
2026-04-21 17:32 32.17943 -109.31358 32221 ft 444 kts 280°
2026-04-21 17:32 32.18499 -109.34306 32224 ft 445 kts 282°
2026-04-21 17:35 32.19004 -109.36744 32223 ft 447 kts 283°
2026-04-21 17:36 32.19035 -109.36890 32223 ft 447 kts 283°
2026-04-21 17:37 32.19951 -109.41081 32228 ft 447 kts 283°
2026-04-21 17:38 32.21339 -109.47350 32226 ft 446 kts 283°
2026-04-21 17:40 32.22271 -109.51598 32226 ft 446 kts 283°
2026-04-21 17:40 32.23155 -109.55681 32227 ft 444 kts 283°
2026-04-21 17:41 32.23896 -109.59139 32229 ft 445 kts 283°
2026-04-21 17:41 32.24944 -109.64065 32227 ft 445 kts 283°
2026-04-21 17:42 32.25115 -109.64874 32226 ft 445 kts 283°
2026-04-21 17:43 32.25414 -109.66290 32226 ft 445 kts 282°
2026-04-21 17:43 32.26908 -109.73388 32231 ft 445 kts 282°
2026-04-21 17:44 32.28396 -109.80502 32228 ft 444 kts 282°
2026-04-21 17:44 32.29624 -109.86393 32230 ft 446 kts 282°